This is the latest recevied weather packets stored in our database for station/object N9BID. If no packets are shown the sender has not sent any weather packets the latest 10 day(s).
| Time | Temp. | Humidity | Pressure | Rain* | Wind** | Luminosity | Snow |
|---|---|---|---|---|---|---|---|
| 1787763430 | 21.11° C | 85% | 1012.4 hPa | 0 mm | - | 208 W/m² | - |
| 1787763124 | 21.67° C | 83% | 1012.2 hPa | 0 mm | - | 433 W/m² | - |
| 1787762824 | 21.67° C | 86% | 1012.1 hPa | 0 mm | - | 699 W/m² | - |
| 1787762518 | 21.11° C | 86% | 1012.3 hPa | 0 mm | - | 278 W/m² | - |
| 1787762215 | 20.56° C | 87% | 1012.2 hPa | 0 mm | - | 734 W/m² | - |
| 1787761910 | 21.11° C | 87% | 1012.1 hPa | 0 mm | - | 228 W/m² | - |
| 1787761606 | 20.56° C | 88% | 1012.2 hPa | 0 mm | - | 322 W/m² | - |
| 1787761301 | 20.56° C | 89% | 1012.2 hPa | 0 mm | - | 164 W/m² | - |
| 1787761001 | 20.56° C | 88% | 1012.4 hPa | 0 mm | - | 147 W/m² | - |
| 1787760698 | 20.56° C | 90% | 1012.3 hPa | 0 mm | - | 153 W/m² | - |
| 1787760393 | 20° C | 89% | 1012.1 hPa | 0 mm | - | 138 W/m² | - |
| 1787760088 | 20.56° C | 88% | 1012.3 hPa | 0 mm | - | 110 W/m² | - |
| 1787759785 | 20° C | 88% | 1012.1 hPa | 0 mm | - | 213 W/m² | - |
| 1787759481 | 20° C | 89% | 1012.2 hPa | 0 mm | - | 303 W/m² | - |
| 1787759176 | 20° C | 90% | 1012.3 hPa | 0 mm | - | 551 W/m² | - |
| 1787758875 | 20.56° C | 88% | 1012.1 hPa | 0 mm | - | 160 W/m² | - |
| 1787758571 | 20.56° C | 89% | 1012 hPa | 0 mm | - | 170 W/m² | - |
| 1787758270 | 20.56° C | 89% | 1012 hPa | 0 mm | - | 154 W/m² | - |
| 1787757970 | 20.56° C | 91% | 1011.8 hPa | 0 mm | - | 519 W/m² | - |
| 1787757666 | 20° C | 91% | 1012.1 hPa | 0 mm | - | 121 W/m² | - |
| 1787757366 | 20° C | 92% | 1012.1 hPa | 0 mm | - | 127 W/m² | - |
| 1787757060 | 19.44° C | 93% | 1012 hPa | 0 mm | - | 265 W/m² | - |
| 1787756754 | 19.44° C | 93% | 1012 hPa | 0 mm | - | 118 W/m² | - |
| 1787756450 | 19.44° C | 92% | 1012 hPa | 0 mm | - | 353 W/m² | - |
| 1787756149 | 19.44° C | 92% | 1011.9 hPa | 0 mm | - | 230 W/m² | - |
* Rain latest hour (hover to see other rain measurements)
** Current wind speed in m/s (hover to see current wind gust speed)